Regional Weather Roundup
Issued by NWS State College, PA

Home | Current Version | Previous Version | Text Only | Print | Product List | Glossary On
Versions: 1 2 3 4 5 6 7 8 9 10 11 12 13 14 15 16 17 18 19 20 21 22 23 24 25 26 27 28 29 30 31 32 33 34 35 36 37 38 39 40 41 42 43 44 45 46 47 48 49 50
209
ASUS41 KCTP 140903
RWRCTP

REGIONAL WEATHER ROUNDUP
NATIONAL WEATHER SERVICE STATE COLLEGE PA
400 AM EST SUN FEB 14 2016

Note: "fair" indicates few or no clouds below 12,000 feet with no
significant weather and/or obstructions to visibility.

* = STATION THAT DOES NOT REPORT PRECIPITATION /E.G. RAIN...SNOW...ETC/
    THUNDER OR FOG.

PAZ002>004-007>009-013>016-020>023-029>032-141000-
WESTERN PENNSYLVANIA

CITY           SKY/WX    TMP DP  RH WIND       PRES   REMARKS
ERIE           CLOUDY    11   1  64 N6        30.43S WCI   1
MEADVILLE      LGT SNOW   6   0  76 W5        30.36R WCI  -3
FRANKLIN*      CLOUDY     3  -6  66 W3        30.36R
NEW CASTLE     FAIR      -4  -7  87 SW3       30.43R
BEAVER COUNTY  NOT AVBL
BUTLER*        CLOUDY    -2  -6  84 CALM      30.43R
PITTSBURGH INT FLURRIES   1  -4  79 CALM      30.41S
PITTSBURGH     CLEAR      5   0  79 W8        30.40S WCI  -8
INDIANA*       PTCLDY     0  -2  92 CALM      30.40S
LATROBE        FLURRIES   0  -4  85 SW6       30.42S WCI -12
WASHINGTON CO* CLOUDY    -4  -8  84 CALM      30.41S
$$

PAZ004>006-010>012-017>019-024>028-033>037-041-042-045-046-049>053-141000-
CENTRAL PENNSYLVANIA

CITY           SKY/WX    TMP DP  RH WIND       PRES   REMARKS
BRADFORD       PTCLDY    -6 -11  79 NW6       30.24S WCI -19
DUBOIS         CLEAR     -3  -7  82 W6        30.29S WCI -15
CLEARFIELD     PTCLDY     0  -6  76 W6        30.32S WCI -12
JOHNSTOWN      MOCLDY     1  -6  72 W13G21    30.24R WCI -17
ALTOONA        PTCLDY     4  -5  66 NW7       30.33R WCI  -8
STATE COLLEGE  PTCLDY     4  -4  70 W6        30.34R WCI  -7
WILLIAMSPORT   PTCLDY     3 -11  52 MISG      30.41R
SELINSGROVE    PTCLDY     6  -8  52 NW6       30.41S WCI  -4
FT INDIANTOWN  PTCLDY     7  -9  47 VRB5G18   30.38R WCI  -1
CAPITAL CITY   PTCLDY    10  -6  48 NW12G21   30.41R WCI  -5
HARRISBURG     PTCLDY    10  -4  53 NW15G22   30.41R WCI  -7
YORK           PTCLDY     2 -10  57 NW6       30.39S WCI  -9
$$

PAZ038>040-043-044-047-048-054-055-060>062-067>071-141000-
EASTERN PENNSYLVANIA

CITY           SKY/WX    TMP DP  RH WIND       PRES   REMARKS
SCRANTON       CLOUDY    -1 -13  56 N9G20     30.34R WCI -16
MOUNT POCONO   PTCLDY    -6 -17  59 NW12      30.16R WCI -25
ALLENTOWN      CLEAR      6 -12  43 NW14G20   30.38R WCI -11
QUAKERTOWN*    SUNNY      5  -9  51 N9G17     30.36S WCI  -9
READING        CLEAR      7  -7  52 NW16      30.38S WCI -11
LANCASTER      PTCLDY     6  -5  60 NW8       30.40R WCI  -7
COATESVILLE    SUNNY      7  -8  51 NW12G21   30.37R WCI  -9
POTTSTOWN      PTCLDY     7  -9  48 NW13G23   30.40R WCI  -9
BLUE BELL        N/A      9  -8  47 CALM      30.38R
DOYLESTOWN     CLEAR      4 -11  50 NW12G21   30.36R WCI -12
WILLOW GROVE   NOT AVBL
NORTH PHILA    PTCLDY    10  -9  42 NW17G29   30.41R WCI  -8
PHILADELPHIA   PTCLDY    11 -11  36 NW22      30.42R WCI  -8
$$




USA.gov is the U.S. government's official web portal to all federal, state and local government web resources and services.